Theta_e
342 341 337 334 336 338 341 342 342 342 343 345 345 345 346 345 345 344 342 340 340 339 339 339 339 339 339 339 339 338 338 338 337 335 333 333 335 338 340 340 340 340 339 339 339 338 338 338 336 334 333 333 335 338 339 339 339 339 339 339 338 336 335 335 335 335 336 336 336 335 335 335 335 336 336 336 335 335 335 336 336 336 337 337 337
345 344 342 339 339 340 342 344 344 343 343 344 344 345 346 346 345 345 344 342 340 339 339 339 339 339 339 339 339 339 339 339 338 337 335 332 332 336 340 340 340 341 340 340 339 339 339 339 338 336 335 334 333 334 336 337 337 338 338 337 336 335 335 335 335 335 335 336 335 335 335 334 334 334 335 336 336 336 336 337 337 337 338 338 338
345 345 345 344 343 343 344 344 344 344 344 345 345 345 345 346 346 346 345 343 342 340 339 339 339 339 340 339 339 339 338 338 338 338 336 333 333 336 340 340 340 341 341 340 340 340 340 340 340 339 337 336 335 334 333 334 334 335 335 334 335 335 335 335 335 335 335 335 334 334 334 334 334 335 336 337 337 337 337 337 337 337 338 338 338
345 345 346 345 345 345 344 344 345 344 344 346 346 345 345 346 346 346 345 344 343 342 340 339 339 339 340 339 339 339 338 338 338 338 337 335 335 336 339 341 340 341 341 340 341 340 340 341 340 340 339 338 337 336 335 334 333 334 334 334 335 335 335 335 334 334 334 334 335 336 336 336 337 337 337 337 337 337 337 337 337 338 337 338 338
344 345 345 345 344 344 344 346 346 345 344 345 346 346 345 346 346 346 345 345 344 343 341 340 339 339 339 339 339 338 337 338 338 338 337 337 337 335 337 340 340 341 342 341 341 341 341 341 341 340 340 338 338 337 337 336 335 335 335 335 335 335 335 335 335 335 335 335 336 338 338 338 337 337 337 337 337 337 338 337 338 338 338 338 338
344 344 345 345 344 343 344 345 346 345 345 344 344 345 344 345 345 345 346 347 345 344 342 340 339 339 339 340 339 337 337 338 338 338 338 339 338 336 336 338 340 341 341 341 341 341 341 341 341 340 341 339 338 338 338 338 338 338 338 338 338 337 337 337 337 337 337 338 337 337 337 338 337 337 337 338 338 338 339 338 338 338 338 337 337
344 345 344 345 345 345 345 346 345 343 344 345 345 345 344 344 345 346 347 346 346 344 342 341 339 339 339 339 338 336 336 338 338 338 340 340 339 339 337 337 339 341 341 341 340 340 340 341 341 340 340 339 339 339 339 338 340 341 340 340 340 340 339 338 338 338 338 338 338 337 337 338 338 338 338 338 339 339 339 339 338 338 336 335 333
346 345 344 344 345 345 345 345 345 344 344 345 345 346 345 346 346 346 347 346 345 345 343 342 340 339 339 339 336 335 337 338 338 339 340 340 340 340 338 337 337 339 340 340 341 340 339 340 341 341 340 338 338 340 340 340 341 342 341 341 341 340 340 339 339 338 338 338 338 338 337 338 338 338 338 339 339 339 338 337 335 333 330 326 323
346 346 346 345 344 345 345 345 346 344 343 344 345 346 345 345 346 346 346 346 345 345 344 342 342 340 339 339 336 335 337 338 338 338 338 339 340 340 339 338 338 338 339 340 340 341 339 338 339 340 340 339 338 338 340 341 341 341 341 341 341 340 341 341 340 340 340 340 339 339 338 339 339 338 339 338 337 335 332 330 327 323 319 318 317
347 347 346 346 345 345 345 346 346 345 344 343 344 346 345 344 345 346 346 346 345 344 344 343 342 340 339 338 336 336 337 338 337 336 335 336 337 337 337 337 338 339 340 340 340 340 339 339 339 339 340 339 340 339 340 340 340 341 341 341 341 341 341 341 341 340 340 340 339 339 339 339 339 338 338 334 329 326 323 320 318 316 316 318 320
347 347 346 346 345 346 346 346 346 346 345 344 344 345 346 344 344 346 345 344 344 343 343 343 340 339 339 337 336 336 337 337 337 336 335 335 335 334 333 333 334 336 339 339 338 338 337 338 339 340 341 340 341 341 341 340 340 341 340 340 340 340 340 340 340 340 340 339 339 340 340 339 337 335 331 325 320 319 317 316 316 317 320 322 321
345 345 346 346 345 345 346 346 347 347 347 346 344 345 347 345 344 345 344 342 342 342 342 342 339 337 336 336 335 336 337 337 338 338 337 336 335 335 333 333 331 332 337 338 336 336 336 337 337 338 340 340 340 340 340 340 340 340 340 340 340 340 340 339 340 340 340 340 340 340 338 336 332 328 323 319 317 316 315 316 318 321 322 322 321
344 344 344 345 344 344 344 344 346 347 348 347 344 344 347 345 342 344 344 342 342 342 341 340 338 336 336 336 336 336 336 337 338 338 338 337 336 336 335 334 332 331 336 337 335 336 335 336 337 337 338 340 340 339 338 339 339 339 338 339 339 340 340 340 340 340 339 340 340 338 334 330 326 322 318 317 316 315 316 319 322 322 322 321 322
346 345 344 344 343 342 341 342 343 346 348 346 344 343 345 345 343 342 344 342 341 341 341 340 338 337 337 337 336 336 335 336 337 337 337 338 337 336 336 335 333 331 333 334 332 331 331 330 331 332 335 338 339 339 339 339 339 338 337 337 338 339 338 338 338 339 339 338 337 334 329 325 321 318 317 316 316 317 319 322 323 322 322 322 322
346 346 345 344 343 341 340 340 341 344 347 347 346 345 345 345 344 343 343 343 341 340 341 340 339 337 337 338 338 338 337 336 336 337 337 337 337 336 337 335 334 331 330 332 332 331 330 329 328 328 329 331 334 337 337 338 338 335 333 332 332 332 333 332 331 332 333 333 331 328 325 321 318 317 317 317 318 321 323 322 322 321 322 322 322
346 346 346 346 344 342 339 339 340 342 345 346 347 346 346 346 346 344 343 343 342 341 340 340 339 338 338 339 338 338 339 338 336 336 336 337 337 336 336 336 334 332 331 332 334 334 333 332 331 329 328 327 328 329 331 332 332 330 327 325 324 324 324 323 322 323 325 326 325 323 321 318 318 318 319 320 321 323 323 322 322 322 322 322 322
346 346 346 346 344 342 339 340 340 341 343 345 346 346 346 346 346 344 343 344 344 342 340 339 339 339 338 338 338 338 340 337 335 336 336 337 336 335 336 335 335 333 332 332 332 334 335 334 332 331 329 328 327 325 325 326 326 325 324 322 321 320 320 320 319 319 321 322 321 319 318 318 320 321 321 322 322 322 322 321 322 322 321 322 322
345 345 345 344 343 340 339 339 340 341 341 343 346 346 346 346 345 345 344 344 344 343 342 340 338 339 337 338 338 339 338 336 336 337 336 335 336 335 335 335 335 334 333 331 330 332 335 335 333 331 329 328 328 326 325 325 324 324 323 322 320 320 319 319 318 318 318 319 319 319 319 321 321 321 321 321 321 321 321 322 322 321 321 321 321
343 345 344 344 343 340 338 338 339 340 341 342 344 345 346 345 345 345 344 343 343 343 342 340 338 338 337 337 337 337 337 336 337 337 337 337 335 335 335 334 335 334 333 332 333 334 335 335 334 333 331 330 329 327 326 326 325 324 323 321 321 321 320 320 320 319 320 319 320 321 321 321 320 320 320 320 320 321 323 323 322 321 321 321 321
341 343 344 344 343 341 340 338 338 340 340 341 342 345 345 345 344 344 345 344 343 342 342 339 338 337 336 335 336 337 336 336 336 336 337 338 337 336 336 334 334 334 334 334 334 334 335 335 335 334 333 332 332 330 327 327 327 326 324 322 321 322 321 321 321 321 321 321 321 321 321 320 319 319 320 321 321 323 324 323 322 321 321 321 322
339 342 343 344 343 343 342 340 338 338 339 340 341 343 345 345 345 344 344 345 344 343 342 340 338 338 337 335 336 336 336 336 335 335 335 337 338 339 338 336 335 334 334 335 335 335 335 335 335 335 334 334 333 331 328 327 327 326 325 324 323 322 321 321 321 321 320 320 320 320 320 320 320 321 322 322 323 323 324 323 322 321 321 322 322
339 341 343 343 343 343 343 342 341 339 338 339 340 341 343 345 345 345 344 345 345 344 344 342 340 340 338 337 337 336 336 336 337 337 336 336 337 338 338 338 338 336 335 334 335 335 335 335 335 335 335 334 332 331 331 329 328 327 327 326 325 324 322 321 320 320 319 319 319 319 319 320 321 323 324 324 324 324 324 323 323 323 322 322 322
337 340 341 343 343 343 343 343 343 343 340 339 340 340 342 344 345 345 344 345 345 345 344 344 342 340 338 337 337 337 336 337 339 340 339 339 339 338 339 338 337 337 336 336 335 335 335 335 335 335 335 334 333 331 331 330 329 328 327 327 327 326 326 324 322 320 320 319 319 319 319 321 322 324 324 324 324 324 324 324 323 323 323 323 323
337 338 340 342 343 342 342 343 344 344 342 341 340 340 341 344 345 344 344 345 346 346 345 344 342 338 337 336 337 338 336 337 338 338 338 340 340 340 340 338 337 336 336 336 336 335 335 335 336 336 336 335 333 332 331 330 330 329 329 328 328 328 327 327 326 324 322 321 320 319 320 321 323 324 324 324 325 324 324 324 324 324 323 323 324
337 337 338 340 341 342 342 343 343 342 342 341 340 340 341 342 345 345 344 345 346 346 345 344 343 341 338 337 337 337 336 335 337 337 337 338 339 340 340 339 337 336 336 336 336 335 334 335 335 336 336 335 335 334 332 331 331 332 332 331 330 329 328 328 328 327 326 325 324 321 320 321 321 323 324 324 324 324 324 324 324 324 324 324 323
336 336 337 339 340 341 341 341 342 342 341 340 340 340 340 341 344 345 344 344 345 346 345 344 344 343 342 341 339 338 337 335 335 336 336 338 338 339 340 339 338 337 336 335 335 336 335 334 335 335 336 336 335 335 333 332 332 333 333 333 332 332 331 330 330 329 328 327 327 326 324 323 322 322 322 322 323 324 324 324 324 324 324 324 324
336 336 337 337 339 339 340 341 341 340 340 340 339 339 340 340 342 344 344 345 345 345 344 344 344 344 343 343 342 341 340 338 336 335 335 336 336 338 339 339 340 340 339 337 334 335 335 334 334 335 336 335 335 335 334 333 332 332 332 333 333 333 333 333 332 332 331 329 328 328 326 326 325 324 323 322 322 323 323 324 324 324 324 324 325
337 337 337 337 338 338 339 340 340 341 339 338 338 338 339 340 341 343 344 344 345 345 344 344 344 344 344 344 343 342 341 340 339 337 335 334 335 336 338 339 340 340 340 339 336 333 334 333 334 334 335 335 335 335 334 333 333 333 333 333 333 333 333 333 334 333 333 332 332 331 329 328 327 327 326 326 325 325 324 325 324 324 325 325 324
338 337 337 337 337 337 338 339 340 340 339 338 337 337 338 339 339 341 343 343 344 344 344 344 345 345 345 344 343 342 342 341 340 338 335 334 334 334 336 338 338 338 340 340 335 332 333 332 332 333 334 334 334 334 334 334 334 334 333 333 333 333 333 333 334 334 333 334 333 333 332 331 330 329 328 328 327 327 327 326 327 326 326 326 326
338 338 338 337 337 337 337 337 338 339 338 338 337 337 337 337 338 339 341 342 343 343 343 343 344 345 346 345 344 344 343 342 341 340 337 335 334 334 335 336 337 337 339 339 333 330 332 332 332 333 333 333 333 333 334 333 334 334 333 333 332 332 333 333 333 333 333 334 333 333 334 333 333 332 330 329 328 327 327 327 327 327 327 327 327
337 338 338 338 337 337 337 337 337 337 338 337 337 337 336 336 336 337 338 339 341 342 342 342 343 344 345 345 345 345 344 343 342 341 339 337 336 336 335 335 335 335 335 335 332 329 331 331 331 332 332 332 332 332 332 332 332 333 332 333 332 332 333 333 333 333 333 333 333 333 334 334 333 333 332 330 329 327 326 326 326 326 326 327 327
338 338 339 338 337 337 337 336 337 337 337 337 337 337 337 336 336 337 337 337 338 339 340 341 342 343 343 343 343 343 344 345 344 342 341 340 339 338 337 335 335 335 333 332 331 329 329 329 329 330 330 330 331 330 331 331 331 331 331 331 331 331 331 331 331 332 332 332 333 333 333 333 333 333 332 331 329 328 327 326 326 326 326 326 327
339 338 339 338 337 337 336 336 337 337 337 337 336 336 336 336 336 337 337 336 336 337 337 337 339 341 341 342 341 341 343 344 344 344 343 342 341 340 339 338 337 337 336 334 332 329 328 328 329 329 329 330 330 330 330 331 331 331 331 331 330 330 330 329 330 330 331 331 332 333 333 333 332 332 332 331 330 329 327 327 327 326 326 327 327
339 339 339 338 337 336 336 336 336 336 336 336 337 336 336 335 336 336 337 337 336 336 336 335 336 338 338 338 339 339 340 341 342 343 343 343 343 342 342 341 340 340 339 339 337 335 333 331 331 331 331 330 330 330 330 331 331 331 331 331 331 331 330 330 329 329 329 329 330 330 331 332 332 332 332 331 331 330 329 328 328 327 327 327 327
339 339 338 338 337 336 336 336 336 336 335 335 335 335 335 335 335 336 336 336 336 337 336 336 336 336 337 337 337 337 338 339 339 340 341 341 342 342 342 342 342 343 342 341 341 341 340 338 337 336 335 334 334 333 334 333 333 333 333 333 334 333 332 332 332 331 330 330 329 329 328 329 330 330 331 331 331 330 329 328 328 328 328 327 327
339 338 338 337 337 337 336 336 336 335 334 334 334 334 334 335 335 336 336 336 337 336 337 337 337 337 337 336 336 337 337 337 337 338 338 339 339 339 340 341 341 341 341 341 342 343 343 342 339 339 339 339 338 337 337 337 337 337 337 338 337 337 337 337 336 336 335 335 335 334 332 330 329 328 329 329 330 330 329 329 329 329 328 327 327
338 338 338 338 337 337 337 336 335 335 334 333 333 333 334 335 335 335 336 336 336 337 336 336 336 336 336 336 335 335 335 335 335 335 335 336 336 336 336 337 337 338 338 339 340 340 342 341 340 338 338 338 337 337 337 337 338 337 338 338 338 339 339 339 340 340 340 340 339 339 338 337 335 331 328 327 327 328 328 329 329 328 328 328 328
338 337 337 337 337 337 337 336 335 335 334 333 333 333 333 334 334 334 335 335 335 335 335 335 335 334 334 333 334 333 333 332 333 333 333 333 333 333 333 333 335 335 336 336 336 338 338 338 337 336 336 335 335 335 335 335 335 336 335 335 335 336 336 337 338 338 338 338 338 338 337 337 338 336 334 330 327 326 326 326 327 328 328 328 328
338 337 337 336 336 336 335 335 335 334 333 333 332 331 332 333 333 333 333 333 332 333 333 333 333 333 332 332 331 331 330 330 330 331 331 331 332 331 331 332 333 334 334 335 335 336 336 337 336 335 335 335 335 335 335 335 336 336 336 337 338 337 337 338 338 338 338 337 335 335 334 334 335 337 337 336 333 330 327 325 325 326 328 328 329
338 337 336 335 335 335 335 333 333 332 332 332 332 331 331 332 332 332 332 332 332 332 332 332 332 331 331 331 330 330 329 329 329 330 330 331 331 331 331 332 332 334 335 336 337 337 338 339 339 337 337 338 338 337 337 338 339 339 340 342 343 343 343 343 341 339 337 336 335 334 333 333 333 334 336 338 338 337 335 331 329 327 327 328 330
340 337 337 335 334 334 333 332 332 332 332 332 331 330 330 330 331 332 332 331 331 331 331 331 331 332 331 330 330 329 329 329 329 330 330 330 331 331 332 334 335 336 338 338 340 341 342 343 343 343 342 342 340 340 341 342 343 344 345 347 348 349 349 346 340 337 339 340 340 338 337 337 338 337 339 341 342 342 341 339 336 332 329 328 329
341 338 337 336 335 333 332 332 331 332 332 332 331 330 330 330 330 330 330 331 331 330 330 330 330 330 330 330 330 329 329 329 329 329 330 331 331 332 333 335 339 340 341 343 344 345 347 348 348 348 349 348 345 344 346 347 347 349 350 351 351 352 350 345 339 338 342 344 344 343 342 342 343 342 343 343 343 343 342 341 340 338 335 332 329
343 340 338 337 335 333 332 332 332 332 331 331 331 330 331 330 330 330 329 330 330 331 330 329 329 329 329 330 330 330 330 329 329 330 330 330 331 332 333 336 339 342 344 346 347 348 349 349 350 351 352 351 349 348 350 351 352 353 353 353 353 352 348 345 343 346 346 346 346 346 345 345 345 345 345 344 344 344 343 343 341 341 340 339 335
345 343 341 338 335 334 333 332 332 332 331 330 330 330 330 330 330 329 329 329 330 330 330 329 329 329 329 329 329 329 330 330 330 330 330 331 331 333 334 337 340 342 344 346 348 348 349 350 352 353 353 352 351 352 353 354 355 354 352 352 352 348 347 348 349 350 349 349 349 349 348 348 348 348 347 346 347 346 345 345 345 345 345 344 342
348 346 344 341 338 336 334 332 332 332 331 330 329 329 329 329 329 329 329 329 329 329 329 329 328 329 329 329 329 330 330 330 330 331 331 332 333 333 335 339 341 343 345 346 347 349 350 351 352 353 353 353 353 354 355 356 356 354 351 352 351 349 350 351 351 350 350 350 350 350 351 351 350 350 349 348 348 347 346 347 348 347 347 348 347
349 348 348 346 342 339 336 334 332 332 332 331 329 329 328 328 329 329 329 329 329 328 328 328 328 328 328 328 329 329 330 330 330 331 332 333 334 336 338 340 342 345 346 347 348 350 351 352 352 353 353 354 355 356 356 356 356 355 352 352 352 352 352 352 351 352 352 352 352 351 351 351 352 352 350 349 350 349 348 349 349 349 349 348 348
349 349 349 348 346 344 340 337 335 334 333 331 330 329 329 329 329 329 329 329 328 328 328 327 327 328 328 328 329 329 330 330 330 332 333 335 337 340 341 342 344 347 348 348 349 350 352 353 354 354 355 356 356 357 356 356 356 355 354 353 353 353 353 353 353 353 353 353 353 352 353 353 353 353 351 350 352 351 349 351 351 350 351 351 349
349 350 350 350 350 348 344 342 340 336 333 332 331 331 330 331 331 331 330 329 329 329 328 328 329 328 329 329 330 330 330 331 332 333 336 338 341 343 344 344 346 349 351 351 352 352 353 355 356 356 356 356 356 357 357 357 356 356 354 353 354 354 354 354 354 353 354 353 353 353 355 354 354 355 353 352 353 354 351 351 351 350 349 350 351
349 349 350 350 350 349 348 347 346 341 335 333 333 332 332 333 333 333 331 330 330 330 329 329 329 330 330 330 331 331 332 333 333 335 339 342 344 346 346 347 348 350 353 354 354 355 356 356 356 356 356 355 356 357 357 356 356 356 355 355 355 355 354 354 354 354 355 354 351 352 354 354 353 354 354 351 352 351 348 347 349 350 350 349 351
350 350 351 350 351 351 351 351 350 347 343 340 338 336 336 337 337 335 334 333 333 331 330 330 330 331 331 331 332 334 334 335 337 339 342 345 347 348 349 351 352 353 355 356 357 356 356 357 357 356 356 355 355 356 356 356 356 355 354 354 355 354 353 354 354 355 355 354 353 351 351 349 347 347 348 348 347 345 343 340 339 341 345 348 350
350 351 352 352 353 353 353 354 354 353 352 350 346 343 344 344 343 341 339 339 337 334 332 332 332 332 332 333 334 335 337 338 341 343 346 348 349 351 352 354 354 355 356 357 357 356 356 357 357 357 356 356 356 356 356 355 355 354 354 355 355 354 353 354 354 354 353 349 346 346 344 343 343 343 344 346 346 345 345 344 340 337 338 341 343
Wind_Speed
6 6 6 7 7 7 6 5 4 4 3 4 4 3 2 2 2 1 3 4 4 5 5 6 7 9 9 8 7 6 6 6 7 6 5 3 2 1 2 3 3 2 3 4 4 4 4 4 4 5 5 4 4 4 4 5 5 4 4 4 4 3 3 3 3 3 4 4 5 5 6 6 6 7 8 9 9 9 9 10 11 12 12 12 12
6 6 5 6 6 6 5 4 3 3 3 3 3 3 3 3 2 1 2 3 3 3 3 5 6 7 7 7 6 6 6 6 6 6 5 4 3 2 2 2 3 2 3 3 3 3 3 3 3 4 4 4 4 4 3 3 3 3 3 3 3 2 2 3 3 3 4 4 5 6 6 6 7 7 7 8 9 9 10 11 11 12 12 13 13
7 7 6 5 6 5 4 3 3 3 3 3 2 2 3 3 3 2 2 3 3 3 3 4 4 5 6 6 5 5 5 5 5 6 5 4 3 2 2 2 2 2 2 3 3 3 2 2 2 2 3 3 4 3 3 2 2 2 2 2 2 2 3 3 3 4 4 4 5 5 6 7 7 8 8 9 9 10 10 11 11 12 12 12 13
7 6 6 5 5 5 4 4 3 3 2 2 2 2 3 3 3 3 2 3 3 3 3 4 3 4 5 5 5 3 4 4 4 5 4 4 3 2 1 2 2 2 2 2 3 2 2 2 2 1 2 2 2 2 2 2 2 2 2 2 2 3 3 4 4 4 4 4 5 5 6 7 8 8 9 10 10 10 11 11 11 12 12 12 12
7 6 6 5 5 5 4 4 3 3 3 2 2 2 2 2 2 2 2 2 2 3 4 4 3 3 4 5 4 3 3 3 3 4 4 3 3 2 2 2 2 3 3 2 2 2 2 2 1 1 0 1 1 1 1 2 2 2 2 2 2 3 4 4 5 5 5 5 5 6 7 8 8 9 10 11 11 11 11 11 11 11 11 11 12
7 7 6 5 5 5 4 3 3 3 3 2 2 2 1 1 1 1 1 1 2 3 4 4 4 3 4 4 4 3 3 2 3 3 3 3 2 2 2 2 2 2 3 2 2 2 2 2 2 2 1 1 1 0 0 1 1 1 1 2 2 3 4 4 5 5 6 6 6 7 8 8 8 9 10 10 11 11 10 10 10 10 10 10 11
8 7 7 6 5 5 4 3 3 3 3 3 3 3 2 1 1 0 1 1 0 2 5 5 4 3 4 3 3 4 4 2 3 3 3 3 3 3 3 3 3 3 3 2 2 2 2 2 2 2 1 2 2 1 1 1 1 1 2 3 3 3 4 4 5 6 7 7 7 8 9 9 9 9 9 10 11 10 10 9 9 9 9 9 10
8 7 7 6 6 5 5 3 3 3 3 3 3 2 2 1 1 1 1 1 1 2 5 6 4 3 2 2 3 4 3 2 2 3 3 3 3 3 3 3 3 4 4 3 2 2 2 2 2 2 2 2 3 2 2 2 2 2 3 3 4 5 5 5 6 6 7 8 8 8 9 9 9 9 9 10 10 9 9 8 8 8 9 9 10
8 7 6 6 6 5 5 3 3 3 2 2 2 2 1 0 0 1 1 1 1 2 5 5 4 3 2 1 3 3 3 2 3 4 4 4 4 4 4 3 2 3 4 3 2 2 2 3 2 2 2 2 3 3 3 4 3 3 4 4 5 6 6 6 6 7 8 8 8 8 9 9 9 9 9 8 8 8 8 8 8 8 9 9 10
9 8 7 6 6 6 5 4 3 2 2 1 2 2 1 1 1 2 2 1 2 3 3 4 4 4 3 2 3 3 2 3 6 7 7 7 7 6 5 4 3 2 2 2 2 2 2 2 1 2 2 2 3 3 3 3 3 3 4 4 5 6 6 6 6 7 8 8 8 8 8 8 8 8 8 7 7 7 8 7 8 8 9 10 11
9 8 7 6 6 6 4 4 3 2 1 1 1 1 1 2 3 3 2 2 2 3 3 4 5 5 4 3 5 4 4 5 6 7 7 8 8 8 7 6 4 2 2 2 1 1 0 1 1 1 2 3 4 3 3 3 4 4 4 5 5 6 6 6 7 7 8 8 8 8 8 7 7 6 6 6 7 7 7 7 7 8 9 10 11
10 8 8 7 6 6 5 4 3 3 2 1 1 2 2 4 4 4 3 3 2 1 2 6 6 4 4 5 6 5 5 5 5 5 6 6 7 8 8 8 7 3 2 2 2 2 1 1 1 1 2 3 4 4 4 4 4 4 5 5 6 6 6 6 7 7 7 7 7 7 7 6 5 5 5 6 6 6 6 7 7 8 10 10 11
10 9 8 8 7 6 5 4 3 3 2 2 3 4 4 4 4 4 5 4 2 1 3 8 6 4 5 7 7 5 5 4 3 3 3 4 5 7 8 8 8 5 3 4 4 4 3 2 2 1 0 2 3 4 4 4 4 5 5 6 6 6 6 6 6 6 6 6 6 6 5 4 5 5 6 6 6 6 6 7 8 9 9 10 11
10 9 9 9 8 7 6 5 4 3 3 3 4 4 4 4 4 5 6 5 3 1 5 8 6 5 7 7 5 4 3 2 2 2 2 2 3 5 6 7 8 5 4 4 5 5 4 4 3 3 1 1 2 3 3 3 4 5 5 5 6 6 6 6 6 5 6 6 5 5 4 4 5 5 6 6 6 6 6 7 8 8 9 10 11
11 10 9 9 9 9 8 6 5 5 4 4 4 3 4 5 5 5 6 6 4 3 5 8 6 6 7 5 4 3 2 2 1 1 2 1 2 3 4 5 6 5 5 5 6 6 5 5 4 3 2 2 2 2 3 3 4 4 4 5 5 6 6 6 6 5 5 5 4 4 4 5 5 5 6 5 5 6 6 7 7 8 10 11 12
12 11 9 9 9 9 9 8 7 6 6 5 4 3 3 4 5 5 6 5 5 5 6 7 7 5 6 5 4 3 2 2 3 1 1 1 1 2 3 3 4 4 4 5 6 6 6 6 5 4 3 3 2 2 2 3 3 4 4 4 4 5 5 5 5 5 5 4 4 4 4 5 5 5 5 5 5 5 6 6 7 8 10 11 12
13 11 10 9 9 9 9 9 8 8 7 6 5 4 4 4 5 5 5 4 5 6 7 7 7 6 5 5 4 3 2 2 3 3 2 1 1 2 2 2 2 2 2 3 4 5 7 7 7 6 4 4 4 3 3 2 3 3 4 4 4 4 4 4 4 4 4 4 4 4 4 5 5 5 5 5 5 5 5 5 7 8 9 10 11
14 12 11 10 10 10 10 10 9 8 8 7 6 5 4 4 4 4 4 4 5 6 7 7 7 6 6 6 5 4 4 4 3 2 2 2 2 2 2 2 2 1 1 1 2 4 5 7 8 7 6 5 5 4 3 3 3 3 4 4 4 4 4 4 4 4 4 4 4 4 4 4 4 5 4 4 4 4 4 5 6 8 8 10 11
15 14 12 11 10 10 10 10 9 9 9 8 6 5 4 4 5 5 5 5 6 6 7 8 7 7 8 8 8 7 6 5 4 4 4 2 2 2 2 2 2 2 2 2 2 3 4 5 6 7 6 5 5 4 3 3 3 3 4 4 4 4 3 3 3 3 3 3 4 4 4 5 5 4 4 4 4 4 4 5 6 7 8 10 11
16 15 14 12 11 11 10 10 10 10 9 8 7 6 5 5 5 6 5 5 6 6 7 8 8 7 7 7 8 8 7 6 6 5 5 4 4 3 4 4 3 3 3 3 3 4 4 4 4 5 5 5 4 4 3 2 2 2 2 3 3 3 3 3 3 3 3 3 4 5 5 5 5 5 5 4 5 5 6 7 7 8 9 10 11
17 17 15 14 13 11 10 10 9 10 9 8 8 7 7 6 5 6 6 5 6 6 7 8 8 8 7 6 6 8 8 8 7 6 6 6 6 5 5 6 6 5 4 3 4 4 5 4 3 3 4 4 3 3 3 3 2 2 2 2 2 2 2 2 2 2 3 3 4 5 6 6 6 6 6 6 6 7 7 8 9 10 10 11 12
18 18 17 15 14 13 11 10 9 9 9 9 9 8 8 7 6 6 6 6 7 7 7 8 9 10 9 7 7 7 8 8 7 6 6 8 8 8 7 7 8 7 5 5 5 6 6 6 4 4 3 3 3 2 3 4 4 3 3 3 2 2 2 2 2 3 3 4 4 5 6 7 7 8 8 8 8 8 9 10 11 11 12 12 13
19 19 18 17 16 15 13 12 10 10 9 9 9 9 9 8 8 7 8 7 7 7 8 8 9 10 10 10 9 8 8 8 7 6 7 8 9 10 9 9 10 10 9 7 8 8 8 7 6 5 5 4 4 4 3 3 4 4 4 4 4 4 4 4 3 4 4 4 5 6 7 8 8 9 9 10 10 10 11 11 12 13 13 14 15
20 20 19 19 18 17 15 14 12 11 10 9 10 10 10 10 10 9 9 8 8 8 8 8 8 8 10 10 10 9 9 9 9 9 9 9 10 10 10 12 13 13 11 10 9 9 9 9 8 7 7 6 6 6 5 4 3 3 3 3 4 4 4 5 5 5 5 6 7 8 9 9 10 10 10 11 12 12 13 13 13 14 14 15 16
22 21 21 20 19 18 17 15 14 12 10 10 10 11 11 11 11 11 10 9 9 9 9 9 9 8 9 10 10 11 11 12 11 11 11 12 12 12 12 13 14 14 13 12 11 10 9 8 8 7 7 7 7 7 7 6 5 4 4 4 4 4 4 5 6 6 7 7 8 9 10 11 12 12 12 13 13 14 14 15 15 15 15 16 17
22 22 21 20 19 18 17 16 15 13 12 11 11 11 12 13 12 12 11 10 10 10 10 10 10 9 9 10 10 11 12 12 13 13 13 13 13 13 13 14 14 15 15 14 12 11 9 6 6 7 7 7 7 8 8 8 7 7 7 7 6 6 5 5 6 7 7 9 10 11 12 13 14 15 15 15 15 15 16 16 16 17 17 18 19
22 21 20 19 19 18 18 17 16 15 14 13 12 12 13 13 13 13 13 12 11 11 10 10 10 10 10 10 10 11 11 11 12 12 13 14 15 14 14 14 15 15 16 16 14 11 8 6 5 5 6 6 6 7 8 9 10 10 10 11 10 8 8 8 7 8 8 9 11 12 13 14 15 16 16 17 17 17 18 18 18 19 19 20 20
23 21 20 19 19 18 18 18 17 16 15 14 14 13 13 14 14 14 14 13 12 12 11 11 11 10 10 11 11 11 11 10 11 12 12 13 14 15 15 15 16 16 16 17 16 11 8 6 5 3 3 4 4 5 7 9 10 11 13 13 13 12 11 11 10 11 11 11 12 13 14 15 15 16 17 18 18 19 19 20 20 20 21 21 22
24 22 21 20 19 18 18 18 17 17 16 15 15 15 14 15 15 15 15 14 14 13 13 12 11 11 11 11 11 11 11 11 11 12 12 13 13 14 14 15 16 17 17 18 18 14 10 7 6 4 3 4 5 5 7 8 9 10 12 14 14 14 13 13 13 13 14 14 15 15 16 16 16 17 17 18 19 20 20 21 21 21 21 22 22
25 24 22 21 20 19 19 19 18 17 17 16 16 16 16 16 16 16 16 15 15 15 15 14 12 11 11 11 11 11 11 11 11 12 13 13 13 13 14 15 16 17 17 19 19 15 10 8 6 5 5 5 7 8 9 9 10 11 12 13 14 14 14 15 16 16 16 17 17 17 18 18 18 18 18 19 19 20 21 22 22 22 22 22 23
27 25 24 22 22 21 20 19 19 19 18 18 17 17 17 18 18 18 17 17 17 16 16 16 14 13 12 12 12 12 11 12 12 12 13 13 14 14 15 15 16 17 16 19 20 15 10 9 9 8 9 9 10 12 12 12 12 13 14 15 15 15 16 17 18 18 19 19 19 19 19 20 20 19 19 19 20 21 21 22 23 23 23 23 23
28 26 25 24 23 21 20 20 20 20 20 19 19 19 19 20 20 19 19 18 18 17 17 17 16 15 14 13 13 12 12 13 12 13 13 13 14 15 16 16 16 17 16 17 21 19 15 14 14 14 14 14 14 14 15 15 15 15 16 17 17 17 18 19 19 19 20 20 20 21 21 21 21 22 21 21 21 21 22 23 23 24 24 24 23
28 27 26 25 23 22 21 21 20 20 20 20 20 21 21 22 21 21 20 20 19 19 18 18 17 16 15 15 14 13 13 14 14 14 14 14 14 15 16 16 17 17 17 18 21 22 20 18 17 17 17 18 18 17 17 17 18 18 18 19 19 19 20 21 21 21 21 21 22 22 23 23 24 24 24 23 23 22 23 23 24 24 24 24 24
28 27 27 25 24 23 23 22 22 21 20 20 21 21 22 23 23 22 21 20 20 20 20 19 18 17 17 16 16 15 15 15 15 15 15 15 16 16 16 17 17 18 18 19 21 24 24 22 20 20 20 20 21 20 20 21 21 22 22 22 22 23 23 24 24 24 24 23 23 24 25 25 26 26 26 26 26 26 25 25 25 25 25 25 25
27 27 27 26 26 25 25 24 23 22 21 21 21 22 23 23 23 23 22 21 21 20 20 20 19 18 18 17 17 17 17 17 16 17 17 17 17 18 18 18 19 19 19 20 22 25 26 26 25 24 23 23 23 23 23 24 25 25 26 26 25 26 26 26 27 27 27 26 26 26 27 28 28 28 28 29 29 29 29 28 27 27 26 26 27
27 27 27 27 27 27 27 26 25 24 23 22 21 22 22 23 23 23 23 22 21 21 21 20 20 19 19 18 18 18 19 19 18 18 19 19 19 19 20 20 20 20 21 22 23 25 27 29 28 26 26 26 26 25 25 26 26 27 27 27 27 27 27 28 29 29 28 27 27 27 28 29 30 30 30 30 30 31 31 31 30 29 28 28 28
28 28 27 28 28 29 29 28 27 26 26 24 23 23 22 23 23 23 23 23 22 22 22 21 21 21 20 20 20 19 20 20 19 19 19 19 19 20 21 21 21 21 22 23 24 25 27 29 30 29 28 28 28 27 27 27 28 28 28 29 28 28 29 29 30 29 28 26 26 26 27 28 29 30 31 32 32 32 32 32 32 32 31 31 31
30 30 29 29 30 30 29 29 28 28 27 27 26 24 24 24 24 23 23 23 23 24 24 23 23 22 21 21 21 20 20 20 20 20 19 19 20 20 21 22 22 23 24 25 25 26 28 29 31 31 31 31 30 29 28 28 30 30 31 31 31 30 30 30 30 30 30 29 27 26 26 27 27 29 31 32 33 34 34 34 34 34 34 34 33
31 31 31 32 32 31 30 30 29 29 29 28 28 27 26 26 25 25 24 24 25 25 25 25 24 23 22 21 21 20 20 21 20 20 20 21 22 23 23 24 25 26 26 27 27 28 29 30 31 32 32 32 32 32 30 30 31 31 31 32 33 32 32 32 32 31 30 30 30 29 29 29 28 28 29 30 32 34 35 35 36 36 36 36 36
31 31 32 33 33 32 31 31 30 29 29 29 29 28 28 27 27 26 26 26 26 26 26 25 24 24 23 22 22 21 21 22 22 22 23 23 24 26 26 27 27 27 27 28 28 29 30 31 32 32 33 33 32 32 31 31 31 31 30 32 33 33 32 33 33 32 31 30 32 33 33 32 31 30 30 30 30 30 31 33 35 37 38 38 38
29 30 30 31 31 31 31 31 31 30 30 30 30 30 29 28 28 27 27 27 27 27 27 26 25 25 24 24 24 23 23 23 23 24 25 25 25 27 27 27 27 27 27 27 28 29 30 31 32 32 32 33 33 31 30 30 30 30 30 31 32 32 32 34 36 36 33 31 31 33 34 34 33 33 32 32 31 29 29 31 32 35 37 38 39
29 29 29 29 29 30 30 31 31 31 31 31 31 30 29 28 28 28 28 28 28 28 28 27 27 26 25 25 25 25 25 25 25 25 25 25 25 26 26 25 26 26 27 27 27 28 28 29 30 28 28 29 32 32 30 29 29 28 28 29 30 30 31 36 41 40 34 31 31 33 35 35 35 36 35 35 36 34 32 32 32 32 34 35 36
30 30 30 30 30 30 31 31 32 33 33 32 31 30 29 29 28 28 29 29 29 29 29 29 28 27 27 27 26 26 26 26 26 26 25 25 25 26 25 24 23 24 25 26 27 27 28 29 28 25 24 27 30 31 29 27 27 28 28 28 28 30 34 38 42 41 36 33 34 36 37 36 37 39 39 38 38 37 36 35 34 33 33 33 33
31 31 31 31 31 31 31 32 33 34 34 33 32 31 30 29 29 28 29 29 30 30 30 30 29 29 28 28 27 27 27 27 27 26 26 26 25 25 25 23 22 22 23 24 26 26 27 29 28 25 25 28 31 30 26 25 27 27 27 26 25 30 37 40 41 40 38 38 39 40 42 41 40 41 42 42 40 39 38 38 36 35 35 33 33
33 33 33 32 32 32 33 33 34 34 35 34 32 31 31 30 29 29 29 30 31 31 31 31 31 30 30 29 29 29 29 28 28 27 26 26 24 24 24 23 22 21 21 23 24 24 25 27 29 29 28 29 31 28 24 25 28 27 26 26 26 31 38 40 42 42 40 41 42 44 45 45 42 42 44 44 42 40 39 39 38 37 36 34 34
34 34 33 33 33 33 33 34 35 35 35 35 33 32 31 31 30 30 30 31 32 32 32 32 32 31 31 30 30 30 29 30 29 26 25 24 23 23 24 24 23 22 21 22 22 23 23 25 28 30 28 27 27 26 25 27 29 29 28 28 30 35 39 41 43 42 40 40 40 42 46 46 42 42 44 42 41 40 39 38 37 37 37 37 36
35 33 33 33 33 33 33 34 35 36 36 35 34 33 32 32 31 31 31 32 33 33 34 33 33 33 32 31 31 30 30 30 28 25 22 21 21 22 23 24 24 23 23 23 22 21 21 22 25 26 26 25 25 24 25 27 28 30 30 29 31 34 38 41 43 42 40 39 37 39 43 43 41 42 43 40 39 40 40 38 37 36 35 35 35
35 34 33 33 33 33 32 33 34 35 36 35 34 33 32 32 31 31 32 33 34 34 34 34 34 33 33 32 31 30 30 29 27 22 20 19 20 21 22 24 24 24 24 25 24 22 20 20 22 24 25 25 25 24 25 25 27 30 30 30 31 31 34 39 42 42 40 36 34 37 42 41 39 40 41 39 39 41 41 40 39 38 35 33 32
35 35 34 33 33 32 32 33 33 34 34 34 34 33 32 31 31 31 33 33 34 35 35 34 34 34 33 32 31 29 29 27 24 20 18 18 20 21 22 23 24 25 24 24 24 24 22 21 23 24 26 26 26 26 25 24 27 28 29 31 30 29 32 36 39 41 39 32 28 32 39 41 39 40 42 42 41 43 44 43 41 39 38 36 35
35 34 33 32 32 33 33 33 33 33 33 33 33 32 31 31 30 31 33 34 34 35 35 34 34 34 33 31 29 28 27 25 21 18 16 18 19 19 19 21 24 26 24 21 22 24 24 25 27 26 25 25 27 28 27 26 27 26 27 29 26 26 30 34 35 38 41 38 30 29 36 42 42 41 42 42 41 41 41 41 41 40 39 40 40
33 33 32 32 33 32 32 31 31 31 31 31 32 31 30 30 30 31 32 33 34 35 34 34 34 33 32 30 28 26 24 21 18 16 15 16 18 18 17 20 25 26 23 21 22 24 26 28 28 27 25 26 29 30 28 26 23 20 21 22 20 22 27 31 32 34 39 43 37 33 38 42 40 37 35 33 37 39 35 36 40 41 39 40 42
Wind_Direction
135 137 146 148 142 136 131 128 126 122 122 124 127 129 140 152 146 156 163 150 135 125 111 101 93 84 75 67 63 60 51 48 50 57 65 67 71 108 146 136 138 148 122 114 106 98 95 87 76 75 76 78 89 93 94 98 99 100 100 89 72 63 55 46 41 26 17 12 10 10 11 11 5 4 4 1 6 7 3 1 358 356 355 355 354
138 138 143 145 141 133 128 127 119 119 131 138 139 140 146 161 170 189 204 188 164 142 121 110 97 80 67 57 51 53 50 43 42 49 61 69 69 104 159 157 146 155 146 130 113 106 103 96 82 75 76 73 76 84 91 94 96 95 85 74 60 58 51 35 18 5 4 3 3 5 5 5 1 2 3 2 4 2 356 355 354 352 351 352 349
143 138 140 142 136 128 128 129 123 127 136 137 140 152 157 164 176 194 221 213 199 175 145 131 107 77 64 54 40 44 53 45 38 43 56 68 69 95 152 161 149 164 163 148 132 124 121 117 104 77 72 74 75 78 87 92 94 88 72 57 43 34 16 4 358 355 358 360 0 3 5 7 5 5 3 1 0 355 352 350 350 348 348 348 346
149 142 142 144 137 131 129 124 119 123 128 123 123 153 162 162 170 178 194 212 215 200 170 156 129 83 68 56 38 43 63 51 39 39 47 66 75 87 131 155 154 174 181 158 155 152 153 159 146 102 61 60 70 70 74 78 72 62 49 32 19 6 1 358 355 355 355 356 359 1 5 7 3 1 359 355 353 350 347 345 344 345 347 349 349
158 150 149 148 145 141 135 126 111 114 124 115 111 141 163 164 167 172 178 196 220 213 188 175 159 106 78 56 37 53 80 61 39 35 35 57 69 75 113 155 164 175 192 197 190 186 190 192 187 171 133 41 54 59 57 58 54 48 35 19 8 358 356 356 353 353 355 358 359 355 354 356 354 351 350 347 345 343 342 341 342 347 351 354 355
167 159 156 153 149 147 147 140 113 112 123 114 107 117 147 170 182 192 189 199 220 209 193 188 174 126 88 52 41 76 94 57 33 29 30 51 63 64 98 145 172 181 190 205 213 212 211 208 218 213 220 309 3 21 21 30 15 21 12 347 345 350 348 345 344 346 347 347 347 342 341 343 343 341 341 340 339 340 341 343 347 352 355 358 360
174 166 164 162 154 150 154 149 123 105 107 112 104 101 119 134 146 196 171 164 192 181 181 190 182 136 92 57 66 95 92 54 29 33 37 54 67 63 77 122 157 175 182 198 220 227 219 219 228 228 250 279 279 276 264 280 278 277 295 305 315 326 332 331 331 331 330 330 330 330 331 334 334 334 337 338 339 341 344 349 353 356 358 1 2
178 170 168 168 162 161 165 161 142 115 108 118 109 97 106 107 91 35 72 101 90 146 169 183 188 156 113 84 96 103 87 58 52 59 66 72 79 81 82 101 141 163 167 178 209 232 232 230 240 248 263 270 263 264 261 259 271 293 298 304 312 315 320 320 319 318 317 320 323 324 327 330 330 331 336 338 340 342 346 354 358 0 1 4 9
184 175 169 167 168 172 174 172 164 132 116 125 119 109 102 102 299 335 337 107 123 166 172 180 187 175 169 151 117 110 87 82 100 95 91 94 96 93 86 82 105 142 157 167 184 207 224 227 233 249 263 260 251 250 261 271 285 299 301 304 307 309 312 312 311 311 310 316 321 322 325 327 326 328 332 336 341 348 356 4 4 6 10 14 18
191 183 174 168 174 180 176 175 175 145 130 134 125 125 145 217 250 270 275 244 207 215 192 175 173 175 200 203 141 122 103 115 114 101 95 96 93 82 72 65 64 88 130 148 174 196 217 221 224 256 266 249 242 253 269 282 292 295 300 304 305 308 311 311 311 308 309 314 320 321 324 325 324 328 336 343 352 360 5 9 11 14 20 21 19
194 190 183 176 181 188 185 180 183 179 181 173 130 134 198 217 230 237 243 227 218 239 220 181 168 180 207 192 150 134 120 125 115 100 95 91 81 71 64 56 49 50 77 95 119 159 221 215 205 247 272 259 250 260 274 283 292 294 298 297 299 307 310 312 311 309 312 316 320 321 323 325 331 340 347 353 359 4 9 12 19 24 24 20 17
203 200 196 190 190 196 200 195 193 202 213 221 191 193 212 218 222 219 213 198 199 288 203 175 170 188 196 169 152 138 124 123 113 102 94 84 73 65 58 49 44 49 85 86 81 83 62 43 163 214 244 265 270 273 274 279 285 287 290 291 294 302 306 311 312 312 316 317 319 320 322 332 346 353 354 356 2 9 16 21 25 24 21 17 16
211 210 208 206 205 205 208 210 209 211 214 220 217 217 216 218 227 221 213 199 175 33 163 165 167 180 168 157 155 143 129 120 104 102 91 80 71 60 54 48 45 57 94 90 77 77 66 54 49 31 302 282 294 292 289 292 294 288 287 290 293 297 304 309 311 313 316 316 316 318 328 344 348 351 354 1 9 15 21 26 25 20 17 17 16
213 213 213 213 216 217 217 218 218 219 218 226 230 227 219 216 223 221 219 209 182 131 167 169 169 171 167 163 162 158 154 143 99 82 76 80 68 52 51 50 49 63 93 88 72 69 62 57 50 32 4 316 309 304 306 306 301 297 299 301 299 300 305 307 309 311 313 314 315 322 339 344 342 348 355 3 9 16 22 21 19 17 17 17 14
214 213 213 215 220 221 220 220 222 225 226 235 240 236 223 215 214 214 216 215 198 176 180 183 181 179 182 185 182 190 229 229 195 63 51 64 52 43 44 49 54 66 85 85 71 60 49 42 36 30 9 332 305 293 298 298 302 313 320 314 309 308 308 310 314 314 311 314 321 331 336 332 338 348 353 0 5 9 14 14 15 16 15 13 11
216 217 217 218 222 222 221 221 221 224 226 234 240 236 224 214 214 213 212 216 212 202 198 196 198 204 207 214 225 234 247 242 234 246 348 2 6 22 25 38 54 67 78 78 65 48 37 30 21 15 4 352 328 300 301 307 317 325 324 321 322 318 317 316 320 321 318 323 330 330 329 330 338 345 348 355 357 0 5 10 13 12 11 9 8
218 220 220 221 222 222 221 220 219 222 223 228 232 228 222 210 210 215 212 217 218 214 217 215 213 220 219 221 235 245 258 273 263 253 265 285 287 319 354 15 29 56 73 71 53 36 27 22 17 10 2 360 356 348 345 342 337 335 334 342 347 338 332 330 330 333 330 330 333 331 331 334 337 338 342 345 346 351 357 4 7 5 5 5 4
219 219 219 219 220 221 221 220 219 221 222 223 226 226 223 212 206 213 215 218 222 220 224 228 230 235 232 229 231 240 279 298 293 288 292 272 270 287 316 350 1 8 19 11 10 13 12 14 15 13 9 6 9 10 12 13 12 9 3 6 9 359 353 352 353 351 345 341 340 338 333 332 332 332 332 335 334 338 343 351 357 357 357 357 357
221 220 217 215 216 219 220 220 220 221 223 223 224 226 228 226 215 215 220 221 223 223 226 233 241 250 250 245 242 248 276 296 294 306 317 312 295 289 299 318 331 327 322 323 330 337 348 4 12 14 13 10 9 10 11 17 25 28 21 19 22 19 16 18 17 8 358 351 342 335 329 324 323 323 323 323 320 319 324 334 342 342 344 348 349
224 223 219 214 213 216 217 219 221 222 225 224 222 225 231 236 229 225 230 229 226 223 228 235 241 253 257 250 247 252 269 287 289 291 296 301 307 313 319 323 329 326 317 318 318 312 319 339 360 6 6 3 0 357 350 355 7 13 18 20 21 21 23 28 21 8 357 349 338 328 323 318 315 312 310 308 303 305 313 320 322 324 330 336 337
225 226 223 218 213 214 215 217 220 222 226 226 224 226 233 243 243 238 240 239 235 230 231 236 235 243 254 247 245 255 263 273 282 285 280 284 295 309 320 323 336 342 329 313 312 308 305 309 322 341 348 347 347 339 316 303 301 307 320 343 353 352 359 9 357 342 336 331 326 320 315 310 306 302 299 296 294 299 303 305 307 311 319 325 328
226 227 226 223 218 215 215 216 219 223 226 228 227 228 233 244 248 244 242 239 240 239 237 240 238 241 248 243 242 252 256 261 278 293 292 292 292 297 306 312 320 326 322 310 303 298 297 299 301 307 314 318 312 300 289 282 273 271 277 284 292 306 314 322 323 319 316 312 307 303 300 296 293 293 292 290 289 291 294 296 299 305 312 316 320
227 228 227 226 222 219 218 218 220 224 226 228 230 230 232 242 246 243 241 238 240 243 242 243 244 243 245 243 242 249 250 253 269 286 291 294 293 294 296 299 303 307 312 315 304 293 291 292 293 292 293 290 281 274 271 270 266 264 268 274 276 278 284 293 299 304 304 298 292 284 280 279 281 284 286 285 285 285 287 291 296 301 306 310 314
227 228 228 226 224 222 221 222 223 225 227 229 231 230 231 237 245 248 246 242 241 244 245 245 245 243 244 245 246 247 248 249 259 274 279 280 286 292 295 299 304 306 310 314 310 299 288 286 286 284 284 281 272 268 265 260 255 259 269 274 278 281 281 284 285 287 289 287 284 278 272 271 273 277 280 281 281 282 285 289 294 299 303 306 309
226 227 227 227 227 225 224 226 228 228 230 232 233 233 233 235 243 250 254 252 248 247 247 245 244 242 241 244 246 249 252 252 256 265 272 273 277 286 295 302 304 304 305 309 312 308 297 287 286 285 281 277 273 268 262 259 255 262 276 280 284 290 289 287 285 284 283 281 280 276 272 270 269 272 275 277 279 281 284 288 292 296 299 302 305
227 228 229 229 230 229 229 230 231 232 232 234 235 235 236 237 241 248 254 257 255 250 247 243 241 239 239 242 247 252 254 256 258 261 267 272 274 280 291 300 303 303 306 309 309 310 309 298 286 284 281 276 273 268 261 258 261 266 276 282 285 286 288 291 291 291 288 284 281 277 275 273 271 271 273 275 278 281 284 287 290 293 296 298 302
229 230 231 231 232 232 232 232 232 233 233 234 236 237 239 240 242 247 252 256 257 254 250 245 242 241 241 243 247 252 255 257 259 261 264 268 270 274 282 292 300 302 304 307 310 312 314 310 296 289 289 284 275 268 263 261 265 270 276 282 285 284 284 287 288 291 291 289 287 283 279 277 275 275 276 277 279 281 284 286 288 290 292 294 297
231 231 231 231 231 231 232 233 233 234 235 235 236 238 240 243 245 248 251 255 259 258 255 251 248 245 245 247 248 251 255 255 258 262 264 266 269 270 273 282 292 297 300 304 309 315 319 316 309 303 306 301 287 277 271 270 271 274 275 279 283 284 284 286 288 290 291 292 291 290 288 286 283 281 281 282 283 284 285 285 286 287 288 290 292
232 231 231 230 231 231 232 233 234 235 237 238 238 239 241 243 246 249 252 256 259 260 259 256 254 251 250 251 253 254 256 256 258 263 265 266 267 268 270 275 283 289 293 297 303 309 312 311 309 298 287 284 284 284 282 281 282 279 277 279 283 286 287 287 287 288 289 290 292 293 294 293 292 289 287 286 286 286 286 285 285 285 285 286 288
233 233 232 231 231 231 232 233 234 236 239 240 242 242 242 243 246 249 251 254 257 260 261 261 258 256 255 256 257 258 259 259 260 262 265 266 267 267 269 272 276 281 284 289 297 305 308 306 304 290 278 274 279 283 282 284 286 284 284 286 288 291 291 288 287 287 289 290 292 293 295 296 296 295 292 289 287 285 285 285 284 284 284 284 285
233 233 233 233 233 232 233 234 235 237 239 241 244 244 244 245 246 248 249 252 256 259 262 264 263 261 261 262 263 265 265 264 264 264 265 267 269 269 269 271 274 278 280 282 287 295 303 300 296 290 286 285 286 287 287 286 287 287 289 290 292 294 292 289 289 291 291 293 294 294 295 296 295 295 293 291 288 285 284 283 283 283 283 284 284
232 233 233 234 234 234 234 235 236 238 239 241 243 244 245 245 245 247 248 250 254 258 261 265 266 265 265 266 267 268 268 268 266 266 267 268 270 271 271 272 273 276 279 277 280 288 297 296 294 293 292 292 291 290 290 291 289 288 288 288 289 290 289 288 289 289 290 292 294 295 296 295 293 292 290 289 287 286 284 284 283 282 282 282 283
231 232 233 234 234 235 235 236 237 237 239 239 241 243 244 245 246 246 247 249 252 255 259 262 264 266 267 267 268 268 268 269 269 269 269 269 269 269 270 272 274 276 278 277 280 288 295 296 295 295 294 293 291 290 291 292 291 290 288 288 289 289 288 288 287 286 286 288 290 291 292 292 291 290 289 287 286 284 283 283 283 282 281 281 281
231 231 232 233 234 235 236 237 237 237 238 238 239 241 242 244 245 247 248 249 251 255 258 261 263 265 266 268 269 270 270 270 271 272 272 271 271 271 271 271 274 276 277 277 279 284 291 294 295 294 293 292 292 293 294 294 293 293 291 291 292 292 291 290 290 289 289 288 288 288 288 288 287 287 287 286 285 283 282 281 281 281 280 280 279
230 229 230 231 232 234 236 237 236 236 236 236 237 239 240 242 244 246 247 249 252 255 257 260 261 262 265 266 268 270 271 271 272 272 273 273 273 273 274 274 275 277 278 278 278 281 287 292 294 294 295 295 295 296 296 296 296 295 295 295 295 293 292 292 292 292 292 292 292 291 289 288 286 285 284 283 283 283 282 281 280 280 279 279 278
229 228 229 230 231 233 235 236 235 235 235 235 237 238 239 241 242 244 245 247 250 253 255 257 259 260 262 264 265 268 270 271 271 271 271 272 273 274 276 277 278 279 280 281 281 282 285 288 291 294 296 297 297 298 299 299 298 297 297 297 297 296 296 296 296 296 297 298 298 295 292 289 287 285 283 281 280 280 280 280 279 278 277 277 277
230 229 229 229 231 233 234 236 235 234 235 235 236 237 238 240 241 242 244 246 249 252 254 256 258 259 260 261 263 265 267 269 269 269 271 272 274 276 277 279 280 281 282 282 282 283 284 287 291 294 295 296 296 298 301 301 301 301 300 300 300 301 302 302 302 303 304 305 303 299 295 290 286 283 279 277 276 275 275 275 275 275 274 274 273
231 231 231 231 233 234 235 236 236 236 236 236 237 237 237 238 240 241 243 245 248 251 254 256 258 258 258 259 261 263 264 265 266 268 271 273 275 276 277 279 281 282 282 283 284 285 286 288 291 293 295 295 296 297 299 300 300 301 301 303 305 305 306 306 305 306 307 307 304 300 295 291 286 282 278 274 271 270 270 270 270 271 271 271 271
233 233 234 234 235 236 238 238 238 237 237 237 237 236 237 238 239 241 244 246 249 251 253 255 257 258 258 259 260 261 262 263 266 269 271 274 276 278 279 281 282 284 285 286 287 288 289 290 290 291 292 294 295 297 298 299 298 300 303 306 307 308 309 308 307 307 306 304 300 296 291 287 284 281 278 275 271 268 267 267 268 269 269 270 270
233 234 235 236 237 238 240 239 238 238 238 238 237 236 236 238 239 241 243 246 249 250 252 254 255 257 259 260 260 261 262 263 266 269 272 275 277 279 281 283 284 286 287 289 291 291 292 292 292 292 293 293 294 295 297 300 302 305 309 310 311 313 313 310 305 302 298 295 293 290 287 284 282 280 279 277 275 274 273 271 269 270 270 270 270
232 233 235 237 238 239 240 239 239 239 239 238 237 236 236 237 239 241 243 245 248 250 252 254 255 256 258 260 261 262 264 266 268 270 273 276 278 280 283 285 287 288 289 290 292 292 294 295 294 294 294 294 294 296 299 302 305 309 312 313 315 316 314 307 298 292 290 290 288 287 286 286 285 283 282 283 282 281 279 276 272 270 269 269 270
232 233 234 236 238 239 239 239 240 240 240 239 238 237 237 238 239 242 244 246 247 250 253 254 255 256 257 259 261 263 265 268 270 272 274 276 278 280 281 283 287 289 291 291 291 292 294 293 293 293 292 292 295 299 303 306 309 312 315 316 317 315 309 300 292 291 292 294 292 290 288 288 288 287 286 286 285 284 280 277 275 272 271 269 269
232 232 233 235 236 238 239 240 240 241 242 241 240 239 239 239 240 243 244 246 248 250 252 254 255 257 258 260 262 264 266 268 269 272 274 275 277 278 278 279 281 284 287 289 290 291 292 291 291 290 288 291 296 302 307 310 314 315 313 314 314 308 300 293 290 293 299 300 298 293 290 288 287 287 286 284 284 284 283 281 278 275 273 271 268
232 232 233 233 234 236 239 240 241 243 243 242 242 241 241 240 241 243 245 247 249 250 251 254 256 258 259 261 264 266 267 269 271 274 275 275 276 276 275 276 276 278 281 283 286 287 288 290 290 287 289 294 299 306 311 315 317 311 302 306 308 297 292 291 292 296 300 300 299 296 292 290 289 289 288 286 285 285 284 282 281 278 276 274 271
234 235 234 234 234 235 237 239 242 243 244 243 242 241 241 241 241 243 245 247 249 251 252 254 256 258 260 262 264 266 269 271 273 275 277 278 277 275 273 274 274 276 277 279 282 284 285 288 289 288 292 296 300 308 314 315 314 302 292 301 304 294 293 295 295 297 299 298 299 298 294 292 294 294 292 291 293 292 288 285 283 281 280 278 274
237 237 236 236 236 235 236 239 241 243 244 244 242 241 242 242 243 244 246 248 250 252 253 255 257 259 261 263 265 267 269 272 273 275 278 278 278 276 274 274 276 278 278 276 277 281 285 288 289 291 295 297 301 307 310 312 309 296 289 300 303 297 296 295 293 296 297 295 297 298 294 293 298 299 296 296 300 299 295 292 289 286 283 281 277
238 239 238 239 239 238 237 238 240 242 243 243 242 242 241 242 244 246 247 249 251 253 254 256 257 259 261 264 266 267 270 273 274 276 278 278 279 279 276 276 282 287 286 281 278 280 285 289 290 292 295 296 298 302 306 308 302 292 292 299 299 296 296 295 295 297 299 298 299 297 294 296 301 301 298 301 305 303 300 298 296 293 290 285 280
240 240 240 241 242 242 240 240 241 242 242 242 243 242 241 243 245 246 247 249 251 252 254 256 258 260 262 264 266 268 270 273 274 275 276 277 279 281 279 279 283 290 293 292 289 288 288 289 291 289 287 289 292 297 305 304 294 293 298 298 295 296 298 297 297 298 300 302 301 300 300 302 304 303 302 305 305 302 300 298 297 297 295 291 287
239 241 242 242 243 244 243 242 243 243 242 242 242 242 242 242 244 245 247 248 251 252 253 255 257 260 261 263 266 268 269 271 273 273 274 276 278 281 282 281 283 289 293 293 294 296 293 289 286 282 281 286 291 297 302 300 296 298 299 296 297 301 299 296 296 299 303 301 296 297 302 305 307 306 303 304 302 297 295 294 294 295 295 292 291
240 242 243 244 245 245 245 245 246 245 244 243 242 241 241 242 243 244 245 248 250 251 252 254 256 258 260 262 263 266 267 269 271 271 272 275 277 279 282 282 281 285 289 290 293 296 293 288 287 287 287 288 290 296 301 301 301 300 295 294 299 299 293 290 293 300 304 301 296 295 298 304 309 308 304 303 300 295 294 294 294 293 291 291 293
242 243 245 246 247 247 247 248 248 248 248 247 245 243 242 243 243 244 245 248 249 250 251 253 255 257 259 260 260 262 265 266 268 268 269 272 275 278 282 280 277 279 287 292 291 288 285 287 290 292 291 290 294 303 307 304 300 295 290 291 295 293 290 290 292 296 297 299 302 303 300 303 307 305 303 302 299 296 295 296 297 295 292 292 292